map of LBU home
LBU - Airport
Location
City:  Labuan, Wilayah Persekutuan Labuan, Malaysia
ICAO:WBKL
IATA:LBU

Details
Type:Airport (Aerodrome, Airfield)
Use:Public/Civil, Military, International (customs port of entry)
Latitude:518'02"N (5.300683)
Longitude:11515'01"E (115.250181)
Datum:WGS 1984
Elevation:101 ft (31 m)
Variation:0.28W (WMM2015 magnetic declination)
-0.08 annual change
Runways:1
Longest:7546 × 148 ft (2300 × 45 m), paved

Time
Time Zone:UTC+8
Local Time:

Weather
METAR:WBKL 160800Z 25005KT 180V330 9999 FEW015 BKN140 OVC290 29/25 Q1007
TAF:WBKL 160500Z 1606/1706 21008KT 9999 FEW013
TEMPO 1607/1612 26007G18KT 3000 TSRA SCT010 FEW013CB SCT030
TEMPO 1612/1616 4000 RA SCT010 FEW014CB SCT035

Related Locations
Nearby:
Farthest:SWUY: 12390 mi / 19939 km
Coari [Urucu], AM, BR

Find:

   beyond  
but within

Other Information
Maps:
NOTAMs:
Links:
Sources:

  
flag of Malaysia
flag of Wilayah Persekutuan Labuan
  

Sectional Chart

Flight Planning
at skyvector.com

Satellite Image

Google Maps Satellite view

 

Copyright © 2004-2017 Karl L. Swartz. All rights reserved.
The Great Circle Mapper name and logo are trademarks of the Great Circle Mapper.
All other trademarks mentioned herein belong to their respective owners.
Please see credits for attibutions and further copyright information.

  Follow gcmap on Facebook Follow gcmap on Twitter Follow gcmap on Google+ GCmap on LinkedIn

hCard Microformat

Geo Microformat